Date String (YYYY-MM-DD hh:mm:ss) UTC,Instrument flags,Ambient pressure (hPa),Sample flow (lpm),Bypass flow (lpm),Sample temperature (°C),Ambient temperature (°C),ASC tube jacket temperature (°C),LED temperature (°C),Box temperature (°C),Sample RH (%),Span deviation,Mass concentration (μg/m³),Mass concentration (μg/m³),Mass concentration (μg/m³)
DateTimeUTC,F1_M11,P_M11,Q1_M11,Q2_M11,T1_M11,T2_M11,T3_M11,T4_M11,T5_M11,U1_M11,ZSPAN_M11,X2_M11,X0_M11,X1_M11
2021-10-28 19:00:00,,0831.4,5.00,0.00,24.0,23.4,00.0,32.7,25.9,13.6,0000.0,0004.76,0012.33,0004.08
2021-10-28 19:01:00,,0831.4,5.02,0.00,24.0,23.5,00.0,32.8,25.9,13.5,0000.0,0004.74,0011.42,0004.08
2021-10-28 19:02:00,,0831.3,4.98,0.00,24.0,23.5,00.0,32.8,25.9,13.5,0000.0,0004.74,0012.22,0004.07
2021-10-28 19:03:00,,0831.2,5.02,0.00,24.0,23.5,00.0,32.8,26.0,13.4,0000.0,0004.73,0012.55,0004.06
2021-10-28 19:04:00,,0831.2,4.99,0.00,24.0,23.5,00.0,32.8,26.0,13.4,0000.0,0004.78,0013.74,0004.06
2021-10-28 19:05:00,,0831.2,5.01,0.00,24.1,23.5,00.0,32.9,26.0,13.3,0000.0,0004.82,0014.79,0004.05
2021-10-28 19:06:00,,0831.2,5.00,0.00,24.1,23.5,00.0,32.9,26.0,13.4,0000.0,0004.82,0014.85,0004.05
2021-10-28 19:07:00,,0831.2,5.00,0.00,24.1,23.6,00.0,32.9,26.1,13.2,0000.0,0004.78,0015.36,0004.02
2021-10-28 19:08:00,,0831.2,5.00,0.00,24.1,23.6,00.0,32.9,26.1,13.1,0000.0,0004.80,0015.53,0004.01
2021-10-28 19:09:00,,0831.2,5.01,0.00,24.2,23.6,00.0,33.0,26.1,13.1,0000.0,0004.79,0015.69,0004.01
2021-10-28 19:10:00,,0831.2,4.99,0.00,24.2,23.6,00.0,33.0,26.1,13.1,0000.0,0004.80,0016.41,0004.01
2021-10-28 19:11:00,,0831.2,5.00,0.00,24.2,23.6,00.0,33.0,26.1,13.2,0000.0,0004.81,0016.95,0004.01
2021-10-28 19:12:00,,0831.1,4.99,0.00,24.2,23.7,00.0,33.0,26.2,13.2,0000.0,0004.81,0017.33,0004.00
2021-10-28 19:13:00,,0831.1,5.00,0.00,24.2,23.7,00.0,33.0,26.2,13.2,0000.0,0004.77,0015.84,0003.99
2021-10-28 19:14:00,,0831.1,4.98,0.00,24.3,23.7,00.0,33.1,26.2,13.1,0000.0,0004.75,0015.19,0003.98
2021-10-28 19:15:00,,0831.2,5.01,0.00,24.3,23.7,00.0,33.1,26.2,13.2,0000.0,0004.67,0014.22,0003.95
2021-10-28 19:16:00,,0831.2,5.00,0.00,24.3,23.8,00.0,33.1,26.3,13.2,0000.0,0004.61,0013.94,0003.93
2021-10-28 19:17:00,,0831.2,5.00,0.00,24.3,23.8,00.0,33.1,26.3,13.1,0000.0,0004.59,0014.05,0003.92
2021-10-28 19:18:00,,0831.2,4.99,0.00,24.4,23.8,00.0,33.2,26.3,13.1,0000.0,0004.59,0013.53,0003.91
2021-10-28 19:19:00,,0831.2,5.01,0.00,24.4,23.8,00.0,33.2,26.3,13.1,0000.0,0004.60,0013.49,0003.92
2021-10-28 19:20:00,,0831.1,5.00,0.00,24.4,23.8,00.0,33.2,26.3,13.0,0000.0,0004.65,0013.77,0003.93
2021-10-28 19:21:00,,0831.0,4.99,0.00,24.4,23.8,00.0,33.2,26.3,13.0,0000.0,0004.63,0012.70,0003.95
2021-10-28 19:22:00,,0831.0,5.00,0.00,24.4,23.8,00.0,33.2,26.3,13.1,0000.0,0004.64,0012.16,0003.96
2021-10-28 19:23:00,,0831.0,5.00,0.00,24.4,23.8,00.0,33.3,26.3,13.1,0000.0,0004.69,0012.51,0003.98
2021-10-28 19:24:00,,0831.0,5.00,0.00,24.4,23.8,00.0,33.3,26.3,13.2,0000.0,0004.73,0013.47,0003.99
2021-10-28 19:25:00,,0831.0,5.00,0.00,24.4,23.8,00.0,33.3,26.3,13.1,0000.0,0004.77,0014.86,0004.00
2021-10-28 19:26:00,,0831.1,5.00,0.00,24.4,23.8,00.0,33.3,26.3,13.1,0000.0,0004.83,0015.33,0004.04
2021-10-28 19:27:00,,0831.0,5.00,0.00,24.5,23.9,00.0,33.3,26.4,13.3,0000.0,0004.92,0015.21,0004.08
2021-10-28 19:28:00,,0831.0,5.01,0.00,24.5,23.9,00.0,33.3,26.4,13.2,0000.0,0004.95,0014.51,0004.12
2021-10-28 19:29:00,,0831.0,4.99,0.00,24.5,23.9,00.0,33.4,26.4,13.1,0000.0,0004.97,0014.94,0004.15
2021-10-28 19:30:00,,0831.0,5.00,0.00,24.5,23.9,00.0,33.4,26.4,13.1,0000.0,0005.02,0015.33,0004.19
2021-10-28 19:31:00,,0831.0,5.00,0.00,24.5,23.9,00.0,33.4,26.4,13.1,0000.0,0005.04,0015.72,0004.22
2021-10-28 19:32:00,,0831.0,4.99,0.00,24.5,23.9,00.0,33.4,26.4,13.2,0000.0,0005.03,0015.36,0004.24
2021-10-28 19:33:00,,0831.0,5.01,0.00,24.5,23.9,00.0,33.4,26.4,13.2,0000.0,0005.07,0015.48,0004.26
2021-10-28 19:34:00,,0831.1,4.99,0.00,24.6,24.0,00.0,33.4,26.5,13.2,0000.0,0005.13,0015.83,0004.30
2021-10-28 19:35:00,,0831.0,5.01,0.00,24.6,24.0,00.0,33.4,26.5,13.1,0000.0,0005.14,0015.65,0004.33
2021-10-28 19:36:00,,0831.0,5.00,0.00,24.6,24.0,00.0,33.5,26.5,13.1,0000.0,0005.15,0014.35,0004.35
2021-10-28 19:37:00,,0831.0,5.00,0.00,24.6,24.0,00.0,33.5,26.5,13.1,0000.0,0005.12,0014.16,0004.36
2021-10-28 19:38:00,,0831.0,4.99,0.00,24.6,24.0,00.0,33.5,26.5,13.1,0000.0,0005.12,0014.34,0004.39
2021-10-28 19:39:00,,0830.9,5.01,0.00,24.6,24.0,00.0,33.5,26.5,13.1,0000.0,0005.14,0014.80,0004.41
2021-10-28 19:40:00,,0830.9,4.99,0.00,24.6,24.0,00.0,33.5,26.5,13.0,0000.0,0005.18,0014.70,0004.43
2021-10-28 19:41:00,,0830.9,4.99,0.00,24.7,24.1,00.0,33.5,26.6,13.1,0000.0,0005.20,0014.30,0004.44
2021-10-28 19:42:00,,0830.9,5.01,0.00,24.7,24.1,00.0,33.5,26.6,13.1,0000.0,0005.23,0013.67,0004.44
2021-10-28 19:43:00,,0830.9,4.99,0.00,24.7,24.1,00.0,33.6,26.6,13.0,0000.0,0005.26,0013.46,0004.44
2021-10-28 19:44:00,,0830.9,5.01,0.00,24.7,24.2,00.0,33.6,26.7,13.1,0000.0,0005.26,0013.90,0004.45
2021-10-28 19:45:00,,0830.9,4.99,0.00,24.8,24.2,00.0,33.6,26.7,13.1,0000.0,0005.24,0013.25,0004.44
2021-10-28 19:46:00,,0830.9,5.00,0.00,24.8,24.2,00.0,33.6,26.7,13.2,0000.0,0005.28,0012.59,0004.44
2021-10-28 19:47:00,,0830.9,5.00,0.00,24.8,24.3,00.0,33.6,26.8,13.2,0000.0,0005.28,0012.46,0004.44
2021-10-28 19:48:00,,0830.9,5.02,0.00,24.9,24.3,00.0,33.7,26.8,12.9,0000.0,0005.33,0012.76,0004.45
2021-10-28 19:49:00,,0830.9,4.99,0.00,24.9,24.3,00.0,33.7,26.8,12.9,0000.0,0005.33,0012.49,0004.45
2021-10-28 19:50:00,,0830.9,5.00,0.00,24.9,24.3,00.0,33.7,26.8,12.9,0000.0,0005.32,0011.97,0004.45
2021-10-28 19:51:00,,0830.9,5.00,0.00,24.9,24.3,00.0,33.7,26.8,13.0,0000.0,0005.31,0011.74,0004.44
2021-10-28 19:52:00,,0830.9,5.01,0.00,24.9,24.3,00.0,33.8,26.8,12.9,0000.0,0005.30,0011.72,0004.45
2021-10-28 19:53:00,,0830.9,5.01,0.00,24.9,24.4,00.0,33.8,26.9,12.9,0000.0,0005.25,0012.10,0004.46
2021-10-28 19:54:00,,0830.9,4.99,0.00,25.0,24.4,00.0,33.8,26.9,12.9,0000.0,0005.26,0012.23,0004.46
2021-10-28 19:55:00,,0830.9,4.99,0.00,25.0,24.4,00.0,33.8,26.9,12.9,0000.0,0005.29,0011.89,0004.46
2021-10-28 19:56:00,,0830.9,5.02,0.00,25.0,24.4,00.0,33.8,26.9,12.8,0000.0,0005.26,0011.88,0004.46
2021-10-28 19:57:00,,0830.9,5.00,0.00,25.0,24.4,00.0,33.9,26.9,12.8,0000.0,0005.24,0011.88,0004.47
2021-10-28 19:58:00,,0830.9,4.99,0.00,25.0,24.4,00.0,33.9,26.9,12.7,0000.0,0005.27,0012.66,0004.49
2021-10-28 19:59:00,,0830.9,5.00,0.00,25.0,24.4,00.0,33.9,26.9,12.7,0000.0,0005.28,0012.71,0004.53
